Flag for Germany Weather past 2 weeks in Geislingen an der Steige, Baden-Württemberg, Germany

Now
54 °F

Sprinkles. Partly sunny.


Feels Like: 54 °F
Forecast: 39 / 70 °F
Wind: 3 mph from Southeast

Location: Stoetten


UV Index: 3 (Moderate)

Visibility: 47 mi


Pressure: 30.11 "Hg

Humidity: 71%

Dew point: 45 °F

Location of Geislingen an der SteigeLocation

Historic Weather in Geislingen an der Steige

°F

Geislingen an der Steige temperature yesterday

Maximum temperature yesterday: 60 °F (at 6:00 PM)
Minimum temperature yesterday: 44 °F (at 6:00 AM)
Average temperature yesterday: 52 °F

Past Weeks' High & Low Weather Summary

 TemperatureHumidityPressure
High61 °F (Apr 12, 5:00 PM)100% (Apr 15, 8:00 AM)30.41 "Hg (Apr 15, 8:00 AM)
Low30 °F (Apr 16, 7:00 AM)30% (Apr 17, 6:00 PM)29.61 "Hg (Apr 21, 2:00 PM)
Average45 °F73%30.04 "Hg
* Reported Apr 8 1:00 PM — Apr 23 1:00 PM, Geislingen an der Steige, Weather by CustomWeather, © 2014

Note: Actual official high and low records may vary slightly from our data, if they occured in-between our weather recording intervals... More about our weather records

Advertising

Historic Weather Conditions — Data for Previous 24 hours

 ConditionsComfort  
Time TempWeatherWind HumidityBarometerVisibility
1:00 PM
Apr 23
54 °FLight rain. Partly sunny.5 mph77%30.11 "Hg47 mi
12:00 PM59 °FPartly sunny.5 mph60%30.08 "Hg47 mi
11:00 AM60 °FPartly sunny.3 mph52%30.07 "Hg47 mi
10:00 AM58 °FPartly sunny.2 mph60%30.07 "Hg47 mi
9:00 AM56 °FScattered clouds.2 mph64%30.07 "Hg47 mi
8:00 AM53 °FScattered clouds.3 mph63%30.08 "Hg47 mi
7:00 AM50 °FScattered clouds.2 mph64%30.09 "Hg34 mi
6:00 AM51 °FPassing clouds.3 mph65%30.07 "Hg34 mi
5:00 AM51 °FOvercast.2 mph64%30.07 "Hg34 mi
4:00 AM50 °FOvercast.2 mph67%30.06 "Hg37 mi
3:00 AM50 °FPassing clouds.3 mph68%30.05 "Hg34 mi
2:00 AM50 °FOvercast.3 mph72%30.05 "Hg28 mi
1:00 AM51 °FClear.2 mph70%30.04 "Hg31 mi
12:00 AM50 °FClear.2 mph71%30.03 "Hg40 mi
11:00 PM
Apr 22
51 °FClear.2 mph68%30.01 "Hg43 mi
10:00 PM52 °FClear.2 mph66%30.00 "Hg43 mi
9:00 PM53 °FPassing clouds.2 mph66%29.97 "Hg47 mi
8:00 PM56 °FPassing clouds.2 mph62%29.93 "Hg47 mi
7:00 PM59 °FScattered clouds.2 mph57%29.90 "Hg47 mi
6:00 PM60 °FScattered clouds.2 mph53%29.90 "Hg47 mi
5:00 PM59 °FPartly sunny.2 mph56%29.89 "Hg43 mi
4:00 PM57 °FPartly sunny.5 mph58%29.90 "Hg43 mi
3:00 PM58 °FPartly sunny.3 mph61%29.88 "Hg43 mi
2:00 PM55 °FPartly sunny.5 mph66%29.89 "Hg43 mi
Weather by CustomWeather, © 2014

See weather overview